User: anonymous   Login
Location: McLaughlin
(0.0000°N, 0.0000°E)
Time: 22:46:05
(UTC+00:00)
Language:

DELFI C3 - Orbit

View from above orbital plane
View from above orbital plane
View from above satellite
View from above satellite

Ground track
Ground track

The orbit data is extracted from the following two-line orbital elements,

1 32789U 08021G   19265.76157507  .00000934  00000-0  66146-4 0  9994
2 32789  97.4556 312.4906 0013039 150.6691 209.5272 15.07116746621437
Epoch (UTC): 22 September 2019 18:16:40
Eccentricity: 0.0013039
inclination: 97.4556°
perigee height: 536 km
apogee height: 554 km
right ascension of ascending node: 312.4906°
argument of perigee: 150.6691°
revolutions per day: 15.07116746
mean anomaly at epoch: 209.5272°
orbit number at epoch: 62143

The dashed part of the orbit path shows where the satellite is in the earth's shadow,  

DLR